Location: Anglesea
(53.2833°N, 4.3333°W)
Time: 18:43:40
(UTC+00:00)

Daily predictions for brighter satellites

Satellite Brightness Start Highest point End
(mag) Time Altitude Azimuth Time Altitude Azimuth Time Altitude Azimuth
CZ-4C R/B 4.0 20:37:49 10° WNW 20:43:25 35° N 20:50:08 10° ENE
MetOp-B 4.2 20:38:22 10° SSE 20:43:41 69° ENE 20:49:02 10° NNW
Cosmos 1515 Rocket 4.2 20:42:52 10° N 20:47:03 40° ENE 20:51:11 10° SE
COSMOS 2428 3.3 20:42:24 10° NNW 20:47:56 48° NE 20:53:26 10° ESE
COSMOS 2487 4.4 20:46:30 10° ESE 20:47:59 12° E 20:49:29 10° ENE
SAR-Lupe-1 4.5 20:44:56 10° N 20:48:31 68° WNW 20:52:04 10° SSW
USA 229 DEB 4.0 20:42:18 10° NW 20:49:29 75° NE 20:57:09 10° SE
USA 229 4.1 20:42:24 10° NW 20:49:35 74° NE 20:57:15 10° SE
GEOS 3 Rocket 3.7 20:44:38 10° NE 20:49:48 58° SE 20:54:51 10° SSW
SAR-Lupe-4 3.9 20:47:11 10° NNE 20:50:47 73° WNW 20:54:21 10° SSW
Cosmos 1428 Rocket 4.5 20:45:50 10° S 20:51:55 76° E 20:58:03 10° NNE
COSMOS 2455 3.7 20:48:43 10° SSE 20:53:45 28° ESE 20:58:47 10° NE
Cosmos 292 Rocket 3.8 20:49:52 10° NNW 20:54:41 82° ENE 20:59:28 10° SSE
Cosmos 1328 Rocket 3.6 20:51:44 10° N 20:56:12 79° ENE 21:00:36 10° SSE
Cosmos 2084 Rocket 4.0 20:53:51 10° NW 20:57:52 49° NNE 21:02:03 10° ESE
Cosmos 2360 Rocket 2.5 20:52:27 10° NW 20:58:03 67° WSW 21:03:38 10° SSE
Meteor 2-3 Rocket 4.0 20:52:59 10° SSW 20:58:43 80° WNW 21:04:32 10° NNE
Terra 2.9 20:54:52 10° ESE 20:59:01 31° ENE 21:03:11 10° N
Cosmos 2082 Rocket 4.2 20:54:15 10° WSW 20:59:25 35° NW 21:04:38 10° NNE
Ariane Rocket 3.9 20:54:51 10° S 20:59:45 49° W 21:04:41 10° NNW
Cosmos 1174 4.0 21:00:58 10° NW 21:03:50 40° SW 21:06:44 10° SSE
ATLAS 2AS CENTAUR R/B 4.1 20:56:52 10° W 21:04:26 48° NNW 21:11:40 10° NE
Cosmos 1766 Rocket 3.5 21:00:35 10° S 21:04:56 73° E 21:09:18 10° NNE
NOSS 2-1 (C) 2.8 21:03:12 10° SSW 21:06:25 59° SE 21:09:52 10° NE
Cosmos 2151 4.3 21:02:28 10° SW 21:06:34 44° WNW 21:10:43 10° N
SPOT 3 Rocket 3.8 21:01:35 10° S 21:06:48 74° WSW 21:12:03 10° NNW
Cosmos 2084 3.4 21:05:16 10° SW 21:09:21 89° NW 21:13:36 10° NE
NOSS 3-1 (A) 4.1 21:02:53 10° NW 21:10:04 87° NE 21:18:16 11° SE
Meteor 2-6 Rocket 4.1 21:04:54 10° NNW 21:10:20 88° E 21:15:45 10° SSE
Resurs 01 Rocket 2.5 21:07:26 10° S 21:11:46 50° W 21:16:08 10° NNW
Cosmos 1420 Rocket 4.2 21:08:12 10° NNW 21:13:32 73° WSW 21:18:48 10° SSE
NOSS 2-1 (D) 2.7 21:10:58 10° SW 21:14:12 70° SE 21:17:43 10° NE
Cosmos 1812 2.9 21:10:45 10° NNW 21:14:37 75° W 21:18:27 10° S
Cosmos 1553 Rocket 4.0 21:09:18 10° N 21:15:25 89° W 21:21:33 10° S
Cosmos 1782 4.2 21:13:28 10° NNW 21:17:13 38° W 21:20:55 10° SSW
Cosmos 1862 3.3 21:17:31 10° S 21:21:28 66° E 21:25:24 10° NNE
Cosmos 2228 Rocket 3.8 21:19:17 10° N 21:23:28 39° ENE 21:26:53 14° SE
SL-27 R/B 2.5 21:20:24 10° SSW 21:24:00 89° ESE 21:27:37 10° NNE
ERS-1 Rocket 3.1 21:20:14 12° SSE 21:24:52 65° ENE 21:29:52 10° N
Cosmos 2285 Rocket 4.1 21:21:13 10° NNW 21:27:32 73° ENE 21:33:03 14° SE
Meteor 2-21 4.4 21:22:00 10° S 21:28:09 79° E 21:34:18 10° NNE
JB-3 4.4 21:25:15 10° NNE 21:29:22 68° ESE 21:33:22 10° S
Cosmos 1833 4.2 21:26:10 10° SSW 21:31:55 72° ESE 21:37:42 10° NE
Cosmos 2315 Rocket 4.4 21:26:07 10° N 21:32:20 53° ENE 21:37:37 15° SSE
BREEZE-M DEB (TANK) 3.1 21:25:01 10° W 21:32:25 47° SSW 21:34:36 17° SE
NOSS 0 Rocket 4.2 21:26:24 10° NNW 21:32:37 62° NE 21:37:53 14° SE
Cosmos 2297 Rocket 4.0 21:31:26 11° ESE 21:33:02 12° E 21:35:07 10° ENE
Cosmos 2333 Rocket 2.4 21:27:53 10° NW 21:33:32 70° WSW 21:38:33 13° SSE
Cosmos 2322 Rocket 4.0 21:30:19 10° NW 21:34:47 25° WSW 21:39:14 10° SSW
SPOT 5 2.7 21:31:58 14° SSE 21:35:44 76° ENE 21:40:19 10° NNW
Cosmos 2237 Rocket 3.0 21:30:19 10° NNW 21:35:46 44° NE 21:40:34 13° ESE
ARIANE 5 R/B 2.6 21:31:52 13° SSE 21:35:54 89° E 21:40:20 10° NNW
Cosmos 2322 3.9 21:30:47 10° NW 21:36:30 71° WSW 21:41:30 14° SSE
Cosmos 1452 Rocket 3.6 21:34:49 10° NNW 21:40:06 81° WSW 21:44:29 15° SSE
USA 234 3.7 21:35:33 10° E 21:42:02 65° N 21:48:31 10° WNW
NOSS 2-2 (E) 4.4 21:38:34 10° NW 21:43:26 70° NE 21:49:13 14° ESE
Cosmos 1500 Rocket 3.8 21:40:12 13° S 21:44:01 54° E 21:48:23 10° NNE
Cosmos 2227 Rocket 4.1 21:44:50 11° ESE 21:46:04 11° E 21:47:48 10° ENE
Cosmos 2219 Rocket 2.4 21:41:48 10° NW 21:47:23 67° WSW 21:51:54 16° SSE
USA 40 PKM 4.3 21:43:54 10° WNW 21:48:05 88° SSW 21:50:40 18° ESE
S3M 4.2 21:43:33 10° NNW 21:49:58 76° W 21:56:13 11° S
USA 102 4.4 21:50:34 25° ESE 21:53:05 61° NE 22:00:03 10° NNW
ATLAS 5 CENTAUR R/B 2.5 21:48:37 10° NW 21:53:57 65° SW 21:58:39 18° SSE
Cosmos 1515 4.4 21:51:54 10° N 21:55:29 39° ENE 21:57:27 22° SE
Sich 1 3.9 21:53:27 20° SE 21:55:41 33° E 21:59:34 10° NNE
Cosmos 1331 Rocket 4.1 21:50:43 10° NNW 21:55:58 72° ENE 21:59:36 20° SE
Meteor 1-27 Rocket 3.8 21:50:52 10° NNW 21:56:36 84° W 22:01:24 15° S
Meteor 2-16 Rocket 4.4 21:50:58 10° S 21:57:03 84° E 22:03:12 10° NNE
Cosmos 1110 Rocket 4.0 21:52:02 10° NNW 21:57:25 80° ENE 22:01:08 20° SSE
Spot 2 Rocket 4.1 21:54:15 11° S 21:59:08 53° W 22:04:08 10° NNW
Cosmos 1408 Rocket 3.9 21:55:12 10° SSW 21:59:31 66° WNW 22:03:50 10° N
CZ-2C R/B 4.2 21:57:52 10° N 22:02:19 61° WNW 22:06:42 10° SSW
Cosmos 1743 Rocket 3.5 22:02:46 14° S 22:06:38 84° E 22:11:03 10° NNE
SL-16 R/B 3.4 22:02:58 10° NNW 22:08:07 34° NE 22:12:56 11° ESE
NOSS 2-2 (C) 4.2 22:04:37 10° NW 22:09:28 80° NE 22:14:24 19° SE
Cosmos 1655 Rocket 4.1 22:04:51 10° SSW 22:11:16 83° WNW 22:17:43 10° N
Cosmos 1633 Rocket 4.3 22:10:51 21° ESE 22:12:22 25° E 22:15:57 10° NNE
NOSS 2-1 (E) 4.1 22:09:25 10° WSW 22:12:37 46° NNW 22:16:16 10° NE
Cosmos 494 Rocket 4.1 22:11:18 17° S 22:15:07 54° ESE 22:20:09 10° NNE
IRIDIUM 104 4.3 22:10:36 10° N 22:15:52 81° E 22:19:24 21° S
Lacrosse 5 2.5 22:12:27 10° SSW 22:16:55 32° SE 22:21:24 10° ENE
COSMOS 2487 2.7 22:18:56 10° SW 22:22:18 64° WNW 22:25:41 10° NNE
Cosmos 1666 Rocket 4.3 22:21:09 26° SE 22:22:57 37° E 22:27:05 10° NNE
Cosmos 1602 4.1 22:22:55 31° SSE 22:24:22 47° E 22:28:04 10° NNE
CZ-4B DEB 4.4 22:23:12 31° S 22:24:30 64° WSW 22:27:40 10° NNW
IRIDIUM 114 4.3 22:19:44 10° N 22:25:00 86° W 22:28:31 21° S
COSMOS 2428 3.6 22:26:52 10° NW 22:32:11 41° WSW 22:35:52 18° S
Cosmos 468 4.4 22:27:30 10° SSW 22:32:39 86° ESE 22:37:56 10° NNE
CZ-4C R/B 3.3 22:26:42 10° NW 22:33:15 58° NNE 22:41:07 10° ESE
USA 102 3.9 22:32:37 40° SSW 22:33:50 54° W 22:41:13 10° NW
IRIDIUM 103 4.4 22:28:56 10° N 22:34:10 74° W 22:37:39 21° S
Terra 2.6 22:33:23 18° SSW 22:36:38 46° W 22:41:14 10° NNW
Meteor 1-25 Rocket 4.2 22:33:38 22° S 22:37:17 71° E 22:42:50 10° NNE
Cosmos 2084 Rocket 4.2 22:33:24 10° WNW 22:37:18 38° SW 22:38:56 27° S
Meteor 2-4 Rocket 4.2 22:31:37 10° N 22:37:28 55° ENE 22:40:46 25° SE
CZ-3B R/B 2.9 22:27:28 10° WNW 22:38:02 56° SW 22:39:48 31° SSE
COBE Rocket 4.0 22:36:50 29° SE 22:39:10 64° ENE 22:43:55 10° N
COSMOS 2455 3.0 22:33:12 10° SW 22:39:13 75° NW 22:45:16 10° NE
Cosmos 1862 Rocket 3.7 22:39:14 10° N 22:43:34 62° ENE 22:45:19 33° SE
Cosmos 1048 Rocket 4.1 22:40:14 10° SSW 22:45:21 76° WNW 22:50:31 10° NNE
Meteor 1-18 Rocket 4.2 22:40:16 10° NNW 22:46:09 84° ENE 22:49:19 28° SSE
USA 267 4.3 22:43:00 10° ENE 22:47:52 22° SE 22:48:10 22° SE
Cosmos 2219 3.9 22:48:17 28° SSE 22:50:18 36° ESE 22:55:31 10° NE
H-2A R/B 3.4 22:47:01 10° NNE 22:51:15 87° WNW 22:53:30 27° SSW
Okean 1 3.3 22:47:25 10° NNW 22:51:26 75° W 22:52:58 36° S
Cosmos 972 Rocket 4.5 22:46:43 10° SW 22:51:45 57° WNW 22:56:36 10° NNE
Cosmos 1707 Rocket 3.7 22:47:25 10° NNW 22:51:47 68° W 22:53:48 31° S
Spot 4 4.0 22:52:09 31° SE 22:54:24 68° ENE 22:59:15 10° N
Cosmos 1302 Rocket 4.0 22:49:46 10° NNW 22:55:01 77° WSW 22:57:32 31° SSE
ATLAS 2AS CENTAUR R/B 4.3 22:49:55 10° WNW 22:57:02 38° N 23:03:45 10° ENE
Meteor 1-19 Rocket 4.3 22:52:23 10° NNW 22:57:56 70° W 23:00:52 28° S
Cosmos 1980 3.9 22:53:02 10° NW 22:58:37 59° WSW 23:01:25 29° S
TSX-5 4.1 22:57:39 32° S 22:59:29 65° ESE 23:04:41 10° NE
Cosmos 1500 3.2 22:59:15 44° SSE 23:00:18 67° E 23:04:09 10° NNE
Cosmos 1378 4.2 22:59:36 10° N 23:03:01 33° ENE 23:03:58 28° ESE
SL-08 R/B 4.5 23:00:50 28° S 23:04:10 68° E 23:10:15 10° NNE
Okean 1-7 3.8 23:04:03 10° N 23:08:06 40° ENE 23:09:33 30° ESE
Cosmos 1269 Rocket 4.1 23:10:35 33° S 23:12:52 61° ESE 23:18:05 10° NNE
Cosmos 2297 Rocket 2.2 23:13:12 30° S 23:15:56 62° ESE 23:21:33 10° NE
Cosmos 2333 Rocket 4.4 23:13:58 10° WNW 23:16:48 14° W 23:19:37 10° SW
Cosmos 2237 Rocket 2.8 23:14:30 10° NW 23:19:54 45° WSW 23:22:23 29° SSW
ALOS 2 2.6 23:23:09 41° SSE 23:24:37 75° ENE 23:29:02 10° NNW
USA 234 3.3 23:18:20 10° ESE 23:24:55 87° NNE 23:31:31 10° WNW
Meteor 1-13 Rocket 4.4 23:20:30 10° N 23:26:13 63° ENE 23:28:50 32° SE
Cosmos 1461 4.4 23:27:18 23° ESE 23:27:18 23° ESE 23:30:20 10° ENE
Cosmos 2227 Rocket 2.3 23:26:37 34° S 23:28:57 59° ESE 23:34:32 10° NE
Cosmos 2219 Rocket 4.4 23:27:46 10° WNW 23:30:16 13° W 23:32:46 10° WSW
Sich 1 4.5 23:30:23 15° SW 23:33:22 32° WNW 23:37:16 10° N
Cosmos 2263 Rocket 4.0 23:33:28 15° ESE 23:34:37 16° E 23:37:57 10° ENE
Meteor 1-14 Rocket 4.2 23:34:11 31° SSW 23:36:59 86° WNW 23:42:46 10° NNE
ATLAS 5 CENTAUR R/B 4.2 23:34:26 10° WNW 23:38:00 17° WSW 23:40:09 14° SW
Cosmos 1745 Rocket 4.0 23:35:14 32° S 23:38:24 83° E 23:44:46 10° NNE
Cosmos 1536 3.7 23:40:44 33° ESE 23:41:18 35° E 23:45:01 10° NNE
Okean 3 3.8 23:40:23 10° N 23:44:36 54° ENE 23:45:46 40° SE
Cosmos 1869 Rocket 4.3 23:47:06 34° ESE 23:48:05 39° E 23:52:15 10° NNE
Nadezhda 1 Rocket 4.3 23:41:49 10° NNW 23:48:08 64° W 23:51:16 31° SSW
Cosmos 44 3.3 23:44:02 10° NW 23:49:23 85° SW 23:51:25 38° SE
Cosmos 1633 Rocket 4.0 23:47:55 25° SW 23:49:58 43° WNW 23:54:08 10° N
Thor Agena Rocket 4.5 23:46:39 10° NNE 23:51:11 32° E 23:52:34 28° SE
Cosmos 1666 2.9 23:50:39 47° SW 23:51:34 64° WNW 23:55:24 10° N
SL-16 R/B 2.3 23:47:01 10° NW 23:52:39 65° WSW 23:54:47 38° S
Cosmos 1470 Rocket 3.7 23:51:16 39° SW 23:52:43 64° WNW 23:57:03 10° N
